Date String (YYYY-MM-DD hh:mm:ss) UTC,Instrument flags,Ambient pressure (hPa),Sample flow (lpm),Bypass flow (lpm),Sample temperature (°C),Ambient temperature (°C),ASC tube jacket temperature (°C),LED temperature (°C),Box temperature (°C),Sample RH (%),Span deviation,Mass concentration (μg/m³),Mass concentration (μg/m³),Mass concentration (μg/m³)
DateTimeUTC,F1_M11,P_M11,Q1_M11,Q2_M11,T1_M11,T2_M11,T3_M11,T4_M11,T5_M11,U1_M11,ZSPAN_M11,X0_M11,X2_M11,X1_M11
2022-08-20 03:00:00,,0828.9,4.99,0.00,29.7,27.6,00.0,38.6,31.4,27.2,0000.0,0023.36,0007.60,0006.05
2022-08-20 03:01:00,,0828.7,4.99,0.00,29.7,27.7,00.0,38.6,31.4,26.9,0000.0,0022.56,0007.56,0006.04
2022-08-20 03:02:00,,0828.9,5.00,0.00,29.7,27.9,00.0,38.6,31.5,27.2,0000.0,0023.39,0007.54,0006.03
2022-08-20 03:03:00,,0829.2,5.00,0.00,29.7,28.1,00.0,38.6,31.6,27.2,0000.0,0024.41,0007.54,0006.03
2022-08-20 03:04:00,,0829.1,5.00,0.00,29.7,28.3,00.0,38.6,31.7,27.1,0000.0,0024.51,0007.53,0006.01
2022-08-20 03:05:00,,0829.0,5.00,0.00,29.8,28.4,00.0,38.6,31.7,27.0,0000.0,0023.21,0007.54,0005.99
2022-08-20 03:06:00,,0828.7,4.99,0.00,29.8,28.6,00.0,38.6,31.8,26.9,0000.0,0023.56,0007.48,0005.98
2022-08-20 03:07:00,,0828.7,5.00,0.00,29.8,28.7,00.0,38.6,31.8,27.1,0000.0,0023.45,0007.47,0005.96
2022-08-20 03:08:00,,0828.9,5.00,0.00,29.9,28.8,00.0,38.6,31.8,27.0,0000.0,0023.00,0007.50,0005.96
2022-08-20 03:09:00,,0829.1,5.00,0.00,29.9,28.9,00.0,38.6,31.9,27.0,0000.0,0023.37,0007.53,0005.95
2022-08-20 03:10:00,,0829.1,5.01,0.00,29.9,29.0,00.0,38.7,31.9,26.8,0000.0,0022.97,0007.51,0005.94
2022-08-20 03:11:00,,0829.3,5.01,0.00,30.0,29.1,00.0,38.7,32.0,26.8,0000.0,0020.83,0007.47,0005.93
2022-08-20 03:12:00,,0829.3,4.99,0.00,30.0,29.1,00.0,38.7,32.0,26.5,0000.0,0020.38,0007.45,0005.93
2022-08-20 03:13:00,,0829.0,5.00,0.00,30.1,29.2,00.0,38.7,32.1,26.6,0000.0,0019.73,0007.47,0005.94
2022-08-20 03:14:00,,0829.0,5.01,0.00,30.1,28.8,00.0,38.7,31.9,26.7,0000.0,0018.88,0007.48,0005.94
2022-08-20 03:15:00,,0829.2,4.99,0.00,30.0,28.2,00.0,38.7,31.8,27.0,0000.0,0018.91,0007.53,0005.94
2022-08-20 03:16:00,,0829.3,5.01,0.00,30.0,28.0,00.0,38.7,31.8,27.2,0000.0,0019.20,0007.55,0005.95
2022-08-20 03:17:00,,0829.1,5.01,0.00,29.9,28.1,00.0,38.7,31.7,27.1,0000.0,0019.37,0007.56,0005.96
2022-08-20 03:18:00,,0828.7,4.98,0.00,29.9,28.2,00.0,38.7,31.7,26.9,0000.0,0019.54,0007.62,0005.97
2022-08-20 03:19:00,,0828.8,5.00,0.00,29.9,28.3,00.0,38.7,31.7,27.3,0000.0,0019.78,0007.61,0005.97
2022-08-20 03:20:00,,0828.7,5.01,0.00,29.9,28.4,00.0,38.7,31.8,27.0,0000.0,0019.54,0007.52,0005.97
2022-08-20 03:21:00,,0828.8,5.00,0.00,29.9,28.6,00.0,38.7,31.9,27.0,0000.0,0019.23,0007.52,0005.97
2022-08-20 03:22:00,,0828.7,4.99,0.00,30.0,28.7,00.0,38.7,31.9,26.9,0000.0,0018.80,0007.54,0005.97
2022-08-20 03:23:00,,0829.1,4.99,0.00,30.0,28.8,00.0,38.7,31.9,26.9,0000.0,0019.37,0007.53,0005.96
2022-08-20 03:24:00,,0829.3,5.01,0.00,30.0,28.9,00.0,38.7,32.0,26.8,0000.0,0019.89,0007.49,0005.95
2022-08-20 03:25:00,,0829.3,5.00,0.00,30.0,29.0,00.0,38.8,32.0,26.7,0000.0,0019.69,0007.50,0005.94
2022-08-20 03:26:00,,0829.3,5.00,0.00,30.1,29.1,00.0,38.8,32.0,26.6,0000.0,0019.10,0007.44,0005.94
2022-08-20 03:27:00,,0829.3,4.99,0.00,30.1,29.1,00.0,38.8,32.1,26.7,0000.0,0019.27,0007.44,0005.93
2022-08-20 03:28:00,,0829.1,5.01,0.00,30.1,28.6,00.0,38.8,31.9,26.7,0000.0,0019.30,0007.47,0005.95
2022-08-20 03:29:00,,0828.8,4.99,0.00,30.0,27.9,00.0,38.7,31.8,26.8,0000.0,0019.59,0007.47,0005.95
2022-08-20 03:30:00,,0828.8,4.99,0.00,30.0,27.6,00.0,38.7,31.7,26.9,0000.0,0019.54,0007.50,0005.96
2022-08-20 03:31:00,,0829.1,5.01,0.00,29.9,27.5,00.0,38.7,31.5,27.0,0000.0,0019.21,0007.56,0005.98
2022-08-20 03:32:00,,0829.1,5.00,0.00,29.8,27.6,00.0,38.7,31.6,27.3,0000.0,0019.88,0007.61,0005.99
2022-08-20 03:33:00,,0829.3,5.00,0.00,29.8,27.8,00.0,38.6,31.6,27.4,0000.0,0019.91,0007.63,0006.01
2022-08-20 03:34:00,,0829.3,4.99,0.00,29.8,28.0,00.0,38.6,31.6,27.1,0000.0,0018.94,0007.62,0006.03
2022-08-20 03:35:00,,0829.3,5.01,0.00,29.8,28.1,00.0,38.6,31.7,27.2,0000.0,0018.09,0007.66,0006.06
2022-08-20 03:36:00,,0829.1,5.00,0.00,29.8,28.3,00.0,38.6,31.7,27.1,0000.0,0017.58,0007.63,0006.06
2022-08-20 03:37:00,,0829.1,4.99,0.00,29.8,28.4,00.0,38.6,31.7,27.2,0000.0,0017.92,0007.62,0006.08
2022-08-20 03:38:00,,0828.8,5.00,0.00,29.9,28.6,00.0,38.6,31.8,27.0,0000.0,0019.61,0007.65,0006.07
2022-08-20 03:39:00,,0828.8,5.00,0.00,29.9,28.7,00.0,38.7,31.9,27.2,0000.0,0020.73,0007.63,0006.06
2022-08-20 03:40:00,,0828.8,4.99,0.00,29.9,28.8,00.0,38.7,31.9,26.9,0000.0,0022.03,0007.58,0006.06
2022-08-20 03:41:00,,0828.8,4.99,0.00,30.0,28.9,00.0,38.7,31.9,26.9,0000.0,0022.46,0007.57,0006.06
2022-08-20 03:42:00,,0828.9,5.00,0.00,30.0,29.0,00.0,38.7,32.0,26.5,0000.0,0023.27,0007.61,0006.05
2022-08-20 03:43:00,,0828.9,5.00,0.00,30.0,29.1,00.0,38.7,32.0,26.5,0000.0,0023.26,0007.61,0006.05
2022-08-20 03:44:00,,0828.9,5.00,0.00,30.1,29.1,00.0,38.8,32.0,26.8,0000.0,0023.99,0007.61,0006.05
2022-08-20 03:45:00,,0829.0,5.01,0.00,30.1,28.7,00.0,38.7,31.9,26.8,0000.0,0025.30,0007.61,0006.04
2022-08-20 03:46:00,,0829.0,5.00,0.00,30.0,28.1,00.0,38.7,31.8,26.8,0000.0,0025.58,0007.63,0006.03
2022-08-20 03:47:00,,0829.0,4.99,0.00,30.0,28.0,00.0,38.7,31.7,26.5,0000.0,0026.43,0007.68,0006.05
2022-08-20 03:48:00,,0829.0,4.98,0.00,29.9,28.0,00.0,38.7,31.7,26.9,0000.0,0027.03,0007.72,0006.04
2022-08-20 03:49:00,,0829.0,5.01,0.00,29.9,28.1,00.0,38.7,31.7,26.8,0000.0,0025.78,0007.72,0006.04
2022-08-20 03:50:00,,0829.1,5.00,0.00,29.9,28.3,00.0,38.7,31.7,27.0,0000.0,0024.63,0007.69,0006.04
2022-08-20 03:51:00,,0829.1,5.00,0.00,29.9,28.4,00.0,38.7,31.8,27.0,0000.0,0022.62,0007.67,0006.05
2022-08-20 03:52:00,,0829.1,4.99,0.00,29.9,28.5,00.0,38.7,31.9,26.8,0000.0,0021.91,0007.66,0006.05
2022-08-20 03:53:00,,0829.1,5.01,0.00,30.0,28.7,00.0,38.7,31.9,26.7,0000.0,0021.20,0007.65,0006.05
2022-08-20 03:54:00,,0829.1,5.00,0.00,30.0,28.8,00.0,38.7,31.9,27.0,0000.0,0020.71,0007.61,0006.04
2022-08-20 03:55:00,,0829.1,5.00,0.00,30.0,28.9,00.0,38.7,32.0,27.2,0000.0,0019.92,0007.62,0006.05
2022-08-20 03:56:00,,0829.1,5.00,0.00,30.0,29.0,00.0,38.8,32.0,27.1,0000.0,0018.56,0007.59,0006.05
2022-08-20 03:57:00,,0829.2,5.00,0.00,30.1,29.1,00.0,38.8,32.0,27.0,0000.0,0018.74,0007.56,0006.04
2022-08-20 03:58:00,,0829.2,5.00,0.00,30.1,29.2,00.0,38.8,32.1,26.7,0000.0,0020.08,0007.48,0006.04
2022-08-20 03:59:00,,0829.2,5.01,0.00,30.1,29.0,00.0,38.8,32.0,26.5,0000.0,0022.60,0007.50,0006.05
